Location: Baia Mare
(47.6567°N, 23.5850°E)
Time: 12:41:21
(UTC+03:00)

ISS - Pass Details

Date: 23 May 2018
Orbit: 402 x 407 km, 51.6° (Epoch: 27 May)

Event Time Altitude Azimuth Distance (km) Brightness Sun altitude
Rises 01:37:44 0° 287° (WNW) 2,320 0.2 -21.7°
Reaches altitude 10° 01:39:53 10° 295° (WNW) 1,459 -0.8 -21.7°
Maximum altitude 01:43:01 42° 8° (N) 584 -2.6 -21.7°
Drops below altitude 10° 01:46:09 10° 82° (E) 1,457 -0.9 -21.6°
Sets 01:48:17 0° 89° (E) 2,315 0.1 -21.6°
